When you browse on this site, cookies collect data to enhance your experience and personalize the content and advertising you see.
Visit our Privacy Policy to learn more. By continuing to use the site, you agree to this use of cookies and data.
  • In Portugal
  • List of Countries
  • For 7 days
  • Water Temperature
  • Satellite Maps
  • Weather Map
  • Weather Widgets
  • user-avatar
    Login

    Hourly Weather Byala

    Today, 20 November, Tuesday

    Time Temperature Precipitation Wind Pressure Humidity
    00:00 0°C° 0 mm 4 mps 755 mmHg 86%
    01:00 +1°C° 0 mm 3 mps 755 mmHg 87%
    02:00 +1°C° 0 mm 3 mps 755 mmHg 86%
    03:00 +1°C° 0 mm 3 mps 755 mmHg 86%
    04:00 +1°C° 0 mm 3 mps 755 mmHg 87%
    05:00 +1°C° 0 mm 3 mps 755 mmHg 87%
    06:00 0°C° 0 mm 4 mps 756 mmHg 86%
    07:00 0°C° 0 mm 4 mps 756 mmHg 85%
    08:00 0°C° 0 mm 4 mps 756 mmHg 85%
    09:00 +1°C° 0 mm 4 mps 756 mmHg 80%
    10:00 +3°C° 0 mm 4 mps 756 mmHg 75%
    11:00 +4°C° 0 mm 4 mps 756 mmHg 70%
    12:00 +5°C° 0 mm 4 mps 756 mmHg 70%
    13:00 +5°C° 0 mm 4 mps 756 mmHg 71%
    14:00 +5°C° 0 mm 4 mps 755 mmHg 71%
    15:00 +5°C° 0.1 mm 4 mps 755 mmHg 75%
    16:00 +5°C° 0.1 mm 4 mps 755 mmHg 79%
    17:00 +5°C° 0.1 mm 5 mps 755 mmHg 83%
    18:00 +5°C° 0.3 mm 5 mps 754 mmHg 85%
    19:00 +5°C° 0.3 mm 5 mps 754 mmHg 87%
    20:00 +5°C° 0.3 mm 6 mps 754 mmHg 89%
    21:00 +5°C° 0.7 mm 6 mps 754 mmHg 91%
    22:00 +5°C° 0.7 mm 6 mps 753 mmHg 92%
    23:00 +5°C° 0.7 mm 6 mps 753 mmHg 93%

    Tomorrow, 21 November, Wednesday

    Time Temperature Precipitation Wind Pressure Humidity
    00:00 +7°C° 1.1 mm 6 mps 753 mmHg 94%
    01:00 +7°C° 1.1 mm 6 mps 753 mmHg 95%
    02:00 +7°C° 1.1 mm 6 mps 752 mmHg 96%
    03:00 +7°C° 0.9 mm 6 mps 752 mmHg 96%
    04:00 +7°C° 0.9 mm 6 mps 751 mmHg 96%
    05:00 +7°C° 0.9 mm 6 mps 751 mmHg 96%
    06:00 +8°C° 0.9 mm 6 mps 751 mmHg 95%
    07:00 +8°C° 0.9 mm 6 mps 750 mmHg 95%
    08:00 +8°C° 0.9 mm 6 mps 750 mmHg 95%
    09:00 +8°C° 1.3 mm 7 mps 750 mmHg 94%
    10:00 +8°C° 1.3 mm 7 mps 750 mmHg 94%
    11:00 +8°C° 1.3 mm 7 mps 750 mmHg 93%
    12:00 +8°C° 1.2 mm 7 mps 750 mmHg 93%
    13:00 +7°C° 1.2 mm 8 mps 750 mmHg 92%
    14:00 +7°C° 1.2 mm 8 mps 749 mmHg 91%
    15:00 +7°C° 0.7 mm 9 mps 750 mmHg 91%
    16:00 +7°C° 0.7 mm 9 mps 750 mmHg 91%
    17:00 +7°C° 0.7 mm 10 mps 750 mmHg 90%
    18:00 +7°C° 0.7 mm 10 mps 750 mmHg 89%
    19:00 +6°C° 0.7 mm 10 mps 751 mmHg 88%
    20:00 +6°C° 0.7 mm 10 mps 751 mmHg 88%
    21:00 +6°C° 0.6 mm 10 mps 751 mmHg 87%
    22:00 +5°C° 0.6 mm 10 mps 752 mmHg 86%
    23:00 +5°C° 0.6 mm 10 mps 752 mmHg 86%

    Day after tomorrow, 22 November, Thursday

    Time Temperature Precipitation Wind Pressure Humidity
    00:00 +3°C° 0.4 mm 10 mps 752 mmHg 85%
    01:00 +3°C° 0.4 mm 10 mps 752 mmHg 85%
    02:00 +2°C° 0.4 mm 10 mps 753 mmHg 84%
    03:00 +2°C° 0.2 mm 10 mps 753 mmHg 84%
    04:00 +1°C° 0.2 mm 10 mps 753 mmHg 84%
    05:00 +1°C° 0.2 mm 9 mps 754 mmHg 84%
    06:00 +1°C° 0.1 mm 9 mps 754 mmHg 84%
    07:00 +1°C° 0.1 mm 9 mps 755 mmHg 83%
    08:00 0°C° 0.1 mm 9 mps 755 mmHg 83%
    09:00 +1°C° 0.1 mm 8 mps 756 mmHg 81%
    10:00 +1°C° 0.1 mm 8 mps 756 mmHg 80%
    11:00 +1°C° 0.1 mm 8 mps 756 mmHg 78%
    12:00 +2°C° 0 mm 8 mps 756 mmHg 75%
    13:00 +3°C° 0 mm 7 mps 756 mmHg 72%
    14:00 +4°C° 0 mm 7 mps 756 mmHg 70%
    15:00 +3°C° 0 mm 7 mps 757 mmHg 70%
    16:00 +3°C° 0 mm 7 mps 757 mmHg 71%
    17:00 +2°C° 0 mm 6 mps 757 mmHg 72%
    18:00 +2°C° 0 mm 6 mps 758 mmHg 72%
    19:00 +1°C° 0 mm 6 mps 758 mmHg 72%
    20:00 +1°C° 0 mm 6 mps 758 mmHg 72%
    21:00 0°C° 0 mm 5 mps 758 mmHg 73%
    22:00 0°C° 0 mm 5 mps 758 mmHg 74%
    23:00 -1°C° 0 mm 5 mps 759 mmHg 74%

    23 November, Friday

    Time Temperature Precipitation Wind Pressure Humidity
    00:00 -1°C° 0 mm 5 mps 759 mmHg 75%
    01:00 -1°C° 0 mm 5 mps 759 mmHg 76%
    02:00 -2°C° 0 mm 5 mps 759 mmHg 77%
    03:00 -2°C° 0 mm 5 mps 759 mmHg 78%
    04:00 -2°C° 0 mm 5 mps 759 mmHg 79%
    05:00 -2°C° 0 mm 5 mps 759 mmHg 80%
    06:00 -2°C° 0 mm 5 mps 760 mmHg 80%
    07:00 -2°C° 0 mm 5 mps 760 mmHg 80%
    08:00 -2°C° 0 mm 5 mps 760 mmHg 80%
    09:00 -1°C° 0 mm 5 mps 761 mmHg 72%
    10:00 +1°C° 0 mm 5 mps 761 mmHg 64%
    11:00 +2°C° 0 mm 5 mps 761 mmHg 57%
    12:00 +3°C° 0 mm 5 mps 761 mmHg 55%
    13:00 +3°C° 0 mm 5 mps 761 mmHg 53%
    14:00 +5°C° 0 mm 5 mps 761 mmHg 51%
    15:00 +3°C° 0 mm 5 mps 761 mmHg 55%
    16:00 +2°C° 0 mm 5 mps 761 mmHg 58%
    17:00 +1°C° 0 mm 5 mps 761 mmHg 62%
    18:00 +1°C° 0 mm 4 mps 761 mmHg 64%
    19:00 0°C° 0 mm 4 mps 761 mmHg 66%
    20:00 0°C° 0 mm 4 mps 762 mmHg 68%
    21:00 -1°C° 0 mm 4 mps 762 mmHg 69%
    22:00 -1°C° 0 mm 4 mps 762 mmHg 69%
    23:00 -1°C° 0 mm 4 mps 762 mmHg 70%

    24 November, Saturday

    Time Temperature Precipitation Wind Pressure Humidity
    00:00 -1°C° 0 mm 4 mps 762 mmHg 69%
    01:00 -2°C° 0 mm 4 mps 761 mmHg 69%
    02:00 -1°C° 0 mm 3 mps 761 mmHg 69%
    03:00 -1°C° 0 mm 3 mps 761 mmHg 68%
    04:00 -1°C° 0 mm 3 mps 761 mmHg 67%
    05:00 -1°C° 0 mm 3 mps 761 mmHg 66%
    06:00 -1°C° 0 mm 3 mps 761 mmHg 65%
    07:00 0°C° 0 mm 3 mps 761 mmHg 64%
    08:00 0°C° 0 mm 3 mps 761 mmHg 63%
    09:00 +1°C° 0 mm 3 mps 761 mmHg 60%
    10:00 +3°C° 0 mm 3 mps 760 mmHg 58%
    11:00 +6°C° 0 mm 2 mps 760 mmHg 56%
    12:00 +6°C° 0 mm 2 mps 760 mmHg 58%
    13:00 +7°C° 0 mm 2 mps 759 mmHg 59%
    14:00 +7°C° 0 mm 2 mps 759 mmHg 61%
    15:00 +7°C° 0 mm 2 mps 758 mmHg 68%
    16:00 +6°C° 0 mm 2 mps 758 mmHg 74%
    17:00 +5°C° 0 mm 2 mps 758 mmHg 81%
    18:00 +5°C° 0 mm 1 mps 758 mmHg 84%
    19:00 +5°C° 0 mm 1 mps 758 mmHg 87%
    20:00 +5°C° 0 mm 1 mps 758 mmHg 90%
    21:00 +5°C° 0 mm 1 mps 758 mmHg 91%
    22:00 +4°C° 0 mm 1 mps 758 mmHg 92%
    23:00 +4°C° 0 mm 1 mps 758 mmHg 92%

    25 November, Sunday

    Time Temperature Precipitation Wind Pressure Humidity
    00:00 +4°C° 0 mm 1 mps 757 mmHg 92%
    01:00 +4°C° 0 mm 1 mps 757 mmHg 92%
    02:00 +4°C° 0 mm 1 mps 756 mmHg 92%
    03:00 +3°C° 0 mm 2 mps 756 mmHg 92%
    04:00 +3°C° 0 mm 2 mps 756 mmHg 91%
    05:00 +3°C° 0 mm 2 mps 756 mmHg 91%
    06:00 +3°C° 0 mm 2 mps 756 mmHg 89%
    07:00 +3°C° 0 mm 2 mps 756 mmHg 88%
    08:00 +3°C° 0 mm 2 mps 755 mmHg 87%
    09:00 +4°C° 0 mm 3 mps 755 mmHg 79%
    10:00 +5°C° 0 mm 3 mps 755 mmHg 71%
    11:00 +8°C° 0 mm 3 mps 755 mmHg 63%
    12:00 +8°C° 0 mm 4 mps 754 mmHg 61%
    13:00 +10°C° 0 mm 4 mps 754 mmHg 59%
    14:00 +10°C° 0 mm 4 mps 753 mmHg 56%
    15:00 +8°C° 0 mm 4 mps 753 mmHg 61%
    16:00 +9°C° 0 mm 3 mps 753 mmHg 67%
    17:00 +8°C° 0 mm 3 mps 753 mmHg 72%
    18:00 +7°C° 0 mm 3 mps 753 mmHg 74%
    19:00 +6°C° 0 mm 4 mps 753 mmHg 76%
    20:00 +6°C° 0 mm 4 mps 752 mmHg 78%
    21:00 +6°C° 0 mm 4 mps 752 mmHg 79%
    22:00 +5°C° 0 mm 4 mps 752 mmHg 81%
    23:00 +5°C° 0 mm 4 mps 752 mmHg 82%
    Show more